Retour au catalogue

FENGYUN 1C DEB

ActifPO
NORAD 29791·DEBRIS·🇨🇳 China

Lancé May 10, 1999 depuis Taiyuan Satellite Launch Center

Loading…

Prochains Passages (prochaines 24 heures)

TLE

FraisSource: Space-Track

Époque: Sep 14, 2026, 01:49 UTC

1 29791U 99025CH  26257.07621100  .00003444  00000-0  69856-3 0  9994
2 29791  99.0291 287.2031 0036846 303.8041  80.3968 14.61543485 28644

Suivez FENGYUN 1C DEB en temps réel avec AllMySat

Download on the App Store